Regional Weather Roundup
Issued by NWS

Home | Current Version | Previous Version | Graphics & Text | Print | Product List | Glossary On
Versions: 1 2 3 4 5 6 7 8 9 10 11 12 13 14 15 16 17 18 19 20 21 22 23 24 25 26 27
000
ASUS45 KPSR 201310
RWRAZ

ARIZONA HOURLY REGIONAL WEATHER ROUNDUP
NATIONAL WEATHER SERVICE PHOENIX AZ
600 AM MST MON FEB 20 2017

NOTE: FAIR INDICATES FEW OR NO CLOUDS BELOW 12,000 FEET WITH NO
SIGNIFICANT WEATHER AND/OR OBSTRUCTIONS TO VISIBILITY.

AZZ001>003-036-201400-
NORTHWEST ARIZONA

CITY           SKY/WX    TMP DP  RH WIND       PRES   REMARKS
BULLHEAD CITY  CLOUDY    57  48  72 S6        30.14R
KINGMAN        CLOUDY    43  38  82 SE6       30.15S
$$

AZZ004>008-015-016-018-201400-
NORTH CENTRAL ARIZONA

CITY           SKY/WX    TMP DP  RH WIND       PRES   REMARKS
GRAND CANYON   CLOUDY    34  34 100 S6        30.17S WCI  29
WILLIAMS       CLOUDY    36  32  87 CALM      30.18S
PRESCOTT       CLOUDY    43  38  82 CALM      30.18R
FLAGSTAFF      CLOUDY    33  29  85 W7G16     30.18R WCI  27
PAYSON         FOG       41  39  93 CALM      30.22R VSB 1/2
PAGE           PTCLDY    39  31  72 CALM      30.11F
$$

AZZ009>014-017-201400-
NORTHEAST ARIZONA

CITY           SKY/WX    TMP DP  RH WIND       PRES   REMARKS
WINSLOW        CLEAR     30  28  92 E3        30.18R
SAINT JOHNS    CLOUDY    40  31  70 W8        30.19R WCI  34
WINDOW ROCK    CLOUDY    36  30  79 W7        30.18R WCI  30
SHOW LOW       CLOUDY    34  32  93 CALM      30.21R
$$

AZZ023-201400-
GREATER PHOENIX AREA

CITY           SKY/WX    TMP DP  RH WIND       PRES   REMARKS
PHOENIX        PTCLDY    51  49  92 E8        30.16R
BUCKEYE        PTCLDY    48  48 100 NW3       30.18R
GLENDALE       PTCLDY    50  50 100 CALM      30.19
LUKE AFB       CLEAR     48 N/A N/A NW6       30.17R
DEER VALLEY    CLEAR     52  50  93 E3        30.16R
SCOTTSDALE     CLEAR     50  48  93 CALM      30.15R
MESA-FALCON    PTCLDY   N/A N/A N/A N5        30.15
MESA-GATEWAY   MOCLDY    46  45  93 E6        30.18R
CHANDLER       CLEAR     46  46 100 NE6       30.18
$$

AZZ027-028-201400-
SOUTHWEST MARICOPA COUNTY AND PINAL COUNTY

CITY           SKY/WX    TMP DP  RH WIND       PRES   REMARKS
CASA GRANDE    NOT AVBL
GILA BEND      FAIR      47  46  97 E3        30.17R
$$

AZZ503-504-507>509-201400-
SOUTHEAST ARIZONA

CITY           SKY/WX    TMP DP  RH WIND       PRES   REMARKS
TUCSON         PTCLDY    50  48  93 SE5       30.20R
DAVIS-MONTHAN  PTCLDY    48  48 100 CALM      30.19R
RYAN FIELD     CLEAR     48  48 100 SE5       30.20
NOGALES        PTCLDY    44  41  89 E3        30.18S
SIERRA VISTA   CLOUDY    42  40  92 S6        30.20S
DOUGLAS        CLOUDY    41  40  96 CALM      30.20R
SAFFORD        CLOUDY    45  43  93 CALM      30.16R
$$

AZZ020-021-025-026-031-201400-
SOUTHWEST ARIZONA

CITY           SKY/WX    TMP DP  RH WIND       PRES   REMARKS
YUMA           CLEAR     55  51  86 NE5       30.14R
$$

CAZ031-033-041-043-047-048-061-201400-
SOUTHERN CALIFORNIA

CITY           SKY/WX    TMP DP  RH WIND       PRES   REMARKS
DOWNTOWN L.A.  CLOUDY    55  50  83 E5        30.19R
L.A. AIRPORT   LGT RAIN  53  52  96 E7        30.20R FOG
SAN DIEGO      CLOUDY    56  46  69 CALM      30.22R
BURBANK        CLOUDY    51  48  89 SE7       30.18R FOG
ONTARIO        DRIZZLE   50  49  96 CALM      30.19S FOG
RIVERSIDE      CLOUDY    51  50  96 CALM      30.20R
PALM SPRINGS   CLEAR     55  51  86 CALM      30.14R
EL CENTRO NAS  PTCLDY    52  44  74 SE5       30.15R
IMPERIAL       CLEAR     52  45  77 SE3       30.13R
BLYTHE         CLEAR     52  49  89 S7        30.14R
NEEDLES        CLOUDY    56  51  84 SW3       30.13R
$$

NVZ020-UTZ003-201400-
SOUTHERN NEVADA-UTAH

CITY           SKY/WX    TMP DP  RH WIND       PRES   REMARKS
LAS VEGAS      CLOUDY    55  45  68 S7        30.05S
SALT LAKE CITY PTCLDY    45  35  68 S18G28    29.97R
$$

NMZ009-TXZ055-201400-
NEW MEXICO-WEST TEXAS

CITY           SKY/WX    TMP DP  RH WIND       PRES   REMARKS
ALBUQUERQUE    CLOUDY    40  33  76 SE7       30.10R
EL PASO        PTCLDY    48  34  58 W20G29    30.09R
$$


........................KEY........................
SKY/WX - SKY CONDITION/WEATHER
TMP    - TEMPERATURE IN FAHRENHEIT
DP     - DEW POINT IN FAHRENHEIT
RH     - RELATIVE HUMIDITY IN PERCENT
WIND   - DIRECTION AND SPEED IN MILES PER HOUR (MPH)
VRB    - VARIABLE WIND DIRECTION
PRES   - MEAN SEA LEVEL PRESSURE IN INCHES OF MERCURY
         F - FALLING PRESSURE   R - RISING PRESSURE
         S - STEADY PRESSURE
VSB    - VISIBILITY IN MILES
HX     - HEAT INDEX IN FAHRENHEIT
WCI    - WIND CHILL INDEX IN FAHRENHEIT
TC     - TEMPERATURE IN CELSIUS WHICH IS ALSO KNOWN AS
         TEMPERATURE IN CENTIGRADE
AFB    - AIR FORCE BASE
         LUKE AFB IS LUKE AIR FORCE BASE
         DAVIS-MONTHAN IS DAVIS-MONTHAN AIR FORCE BASE
NAS    - NAVAL AIR STATION
         EL CENTRO NAS IS EL CENTRO NAVAL AIR STATION
N/A    - NOT AVAILABLE





USA.gov is the U.S. government's official web portal to all federal, state and local government web resources and services.